Wind_Speed
31 30 30 30 30 29 29 29 29 29 29 28 28 28 28 28 28 27 27 27 26 26 25 25 24 24 23 24 24 23 23 23 23 23 23 23 23 22 23 23 23 23 23
33 32 32 32 32 31 31 31 31 30 30 30 30 30 29 29 29 29 29 29 29 29 28 27 27 26 26 25 25 25 25 25 25 25 25 25 24 24 25 25 25 26 26
33 33 33 33 33 33 33 32 32 32 32 32 32 32 32 32 31 31 31 31 31 31 30 30 29 29 28 28 27 27 27 27 27 27 26 27 26 26 27 27 27 27 28
35 35 35 35 35 35 34 34 34 34 34 34 33 33 33 33 33 33 32 32 33 32 32 32 32 32 32 31 30 29 29 29 29 29 28 28 29 29 29 29 29 29 29
37 37 37 37 37 37 37 36 36 36 36 36 36 35 35 34 34 35 35 35 34 34 34 34 34 34 34 33 33 33 32 32 31 31 30 31 31 31 31 31 31 31 31
39 39 38 38 39 39 38 38 38 37 37 37 37 37 37 37 37 36 36 37 36 36 36 36 36 36 35 35 35 35 34 34 33 33 32 33 33 33 33 32 32 32 32
40 40 41 40 40 40 39 39 39 38 38 39 39 39 39 39 39 38 38 38 38 38 38 38 37 37 37 37 37 36 36 35 35 34 34 34 34 34 34 34 34 33 33
42 42 42 41 41 41 40 40 40 40 40 41 41 41 41 40 40 40 40 40 40 40 39 39 39 39 40 39 39 38 38 37 37 36 36 36 36 36 36 36 36 36 36
44 44 43 43 43 42 42 42 42 42 42 42 43 42 42 42 42 42 42 42 41 41 41 41 41 41 41 41 40 40 40 40 39 39 39 38 38 38 38 38 39 39 39
45 45 45 45 44 44 44 44 44 44 44 44 44 44 44 44 43 43 43 43 43 43 43 43 43 42 42 43 43 42 42 42 41 41 41 41 41 40 41 41 41 41 41
45 45 45 45 46 46 46 46 45 45 45 45 44 44 44 44 44 44 44 44 44 44 44 44 44 44 44 44 44 44 44 44 44 44 44 44 43 43 43 43 43 42 43
48 48 47 47 47 47 46 46 46 46 45 45 45 44 44 44 43 44 45 46 45 45 46 46 46 46 45 45 45 45 45 45 45 45 45 45 45 45 44 44 44 45 45
48 47 48 48 47 47 47 47 46 46 46 46 46 45 45 45 45 45 46 46 47 46 47 47 47 47 47 46 46 46 46 47 46 46 46 46 46 46 46 45 46 46 46
48 48 49 49 48 48 48 47 47 46 47 47 47 47 47 46 46 46 47 47 47 47 47 47 48 48 48 47 47 47 48 48 48 48 47 47 47 47 46 46 46 46 46
49 50 49 49 49 48 48 48 48 47 47 47 47 47 47 48 48 48 48 48 48 48 47 48 49 49 49 49 49 49 49 49 49 48 48 48 47 47 47 46 46 46 46
50 50 50 50 49 50 50 49 49 49 49 49 48 48 48 48 48 48 48 48 48 48 48 49 50 50 50 50 50 50 50 49 49 49 49 48 48 47 47 47 47 47 46
51 51 51 50 50 50 50 50 50 51 50 50 49 49 49 48 48 48 48 48 49 49 48 49 50 51 51 51 50 50 50 50 50 50 50 49 49 48 48 48 49 48 47
51 52 51 51 51 51 51 51 51 51 50 50 50 49 49 49 49 49 49 49 49 49 49 49 50 51 51 51 51 51 51 51 51 51 51 51 50 50 50 50 50 50 49
50 51 51 51 51 51 52 52 52 51 50 49 49 50 49 49 49 50 50 50 49 50 50 50 50 50 51 52 52 51 51 51 52 52 52 52 51 51 51 51 50 50 50
50 51 50 50 50 51 51 51 51 51 50 49 49 49 49 49 49 50 50 50 50 51 51 51 51 51 52 52 52 52 52 52 52 53 53 52 52 52 52 52 51 51 51
50 51 51 50 50 50 51 51 51 51 50 50 50 50 49 49 49 49 50 50 50 50 51 51 51 52 52 52 53 53 53 53 53 53 53 53 53 52 53 53 53 53 53
50 51 51 51 51 50 51 51 51 50 50 51 51 50 50 50 50 50 50 50 49 49 49 49 50 50 51 52 53 53 53 53 53 54 54 54 54 54 54 54 54 54 54
48 49 50 50 50 50 50 51 51 51 51 51 50 50 50 49 49 49 50 50 50 50 50 50 50 50 51 51 52 53 53 53 54 54 54 54 54 54 54 54 54 54 55
47 47 49 49 49 49 49 50 50 50 51 51 50 49 49 49 49 49 49 50 50 50 51 51 50 50 51 51 52 53 54 54 54 54 54 54 54 54 54 55 55 55 56
46 46 47 48 48 48 48 48 49 49 49 50 50 50 50 49 49 50 50 50 50 50 51 51 50 50 51 51 52 53 53 53 53 54 54 54 54 55 55 55 56 56 56
45 45 46 47 47 48 48 49 49 49 49 49 50 50 50 50 50 49 50 50 50 50 50 51 50 50 50 51 52 52 52 52 52 53 53 54 54 54 55 55 55 55 55
Wind_Direction
252 253 254 255 254 254 253 253 254 255 255 255 255 255 254 255 254 254 254 255 256 257 258 260 260 262 262 263 262 263 262 263 266 268 267 267 267 268 268 270 272 271 271
251 252 253 254 254 254 254 254 254 255 255 256 256 256 256 256 256 256 256 256 255 256 257 259 259 260 261 263 263 264 263 263 266 268 268 267 266 268 269 270 271 272 272
252 253 253 253 254 255 254 254 255 255 256 256 257 257 257 257 256 256 257 257 257 257 257 258 258 259 260 262 262 264 265 266 267 268 269 269 268 268 269 270 271 271 271
254 254 254 254 254 255 255 255 255 255 256 256 257 257 257 257 257 257 258 258 258 258 257 258 258 259 260 261 262 263 265 266 267 268 269 270 271 269 269 270 270 271 270
255 255 256 255 255 255 256 255 256 256 257 257 257 257 258 257 257 258 259 259 258 258 257 257 258 258 259 260 262 263 265 266 267 268 269 270 271 270 269 269 270 271 270
256 257 256 256 256 257 257 256 257 257 257 257 258 258 258 258 258 258 259 258 258 258 257 257 257 258 259 260 262 263 264 265 267 267 269 270 270 270 270 269 269 270 270
257 257 257 256 256 257 258 258 258 258 258 258 259 259 259 260 260 259 259 258 257 257 257 257 258 259 260 261 262 263 264 265 266 267 269 269 269 269 270 269 269 270 271
256 257 257 256 256 257 257 258 259 259 259 259 260 260 260 261 261 260 259 258 258 258 258 258 258 259 260 260 261 262 263 265 266 268 268 269 269 269 269 270 270 270 272
255 256 256 256 257 257 257 258 259 260 260 260 260 261 261 260 260 260 259 258 258 258 258 258 258 259 259 260 260 262 264 265 266 267 268 268 269 269 268 269 270 271 272
255 256 257 257 256 257 258 259 259 260 260 260 261 261 261 261 260 260 259 259 258 258 258 259 259 259 260 260 261 262 264 265 265 266 267 268 268 269 269 269 271 272 272
255 256 256 257 258 259 258 259 259 260 260 260 260 260 261 261 261 259 258 257 258 258 258 259 259 260 260 260 261 262 263 264 266 267 267 268 268 268 269 270 271 272 273
255 256 257 257 259 259 259 259 259 259 259 259 259 259 260 261 260 260 259 258 257 257 257 258 259 259 260 261 262 262 263 264 265 266 267 268 268 268 269 270 271 272 273
255 256 256 257 258 259 258 258 258 258 259 259 259 259 260 260 261 261 260 259 258 257 257 257 258 259 260 261 262 263 264 265 266 267 267 268 268 268 269 270 271 272 273
255 255 256 256 256 257 257 256 256 258 258 259 258 259 259 261 261 262 262 261 260 258 257 257 257 259 260 261 262 263 264 266 267 267 268 268 268 268 269 270 271 272 273
256 256 256 256 255 256 256 256 257 258 258 258 258 259 260 261 262 263 262 262 261 259 258 257 258 258 259 260 262 263 265 266 267 267 267 267 268 268 269 270 271 272 272
255 255 256 257 256 256 255 256 257 257 258 257 259 259 260 261 262 262 262 262 262 261 259 258 258 258 259 260 261 262 264 265 266 267 267 267 267 268 268 269 271 272 272
256 256 256 256 256 256 256 256 257 258 258 258 259 260 261 261 261 261 262 263 262 262 261 260 259 259 260 260 261 262 264 265 265 266 266 266 266 267 268 269 270 270 271
256 256 255 255 256 256 256 257 257 257 258 258 259 259 260 260 261 262 262 262 262 262 261 261 261 260 260 260 261 262 263 264 265 266 266 266 266 267 268 269 270 270 271
255 255 255 256 256 256 257 257 257 257 258 258 258 258 260 260 261 262 262 262 262 262 263 262 262 261 261 261 262 263 264 264 265 265 266 266 266 267 268 269 270 270 270
254 255 255 256 256 257 256 256 256 257 257 258 258 258 259 260 261 262 262 262 262 262 263 263 263 263 263 262 263 264 264 264 265 266 266 266 267 267 268 269 270 270 270
255 255 255 255 256 256 255 255 255 255 256 257 257 258 258 260 261 261 261 262 262 262 263 264 264 264 264 264 264 264 264 264 265 266 266 266 267 268 268 269 270 270 270
256 255 255 255 256 256 256 255 254 254 255 256 257 257 258 260 260 260 261 262 262 262 263 264 265 265 265 265 265 265 265 265 265 266 266 266 267 267 268 268 269 270 271
256 255 255 255 256 256 256 256 256 255 255 256 257 258 258 259 260 261 261 261 261 261 263 265 266 267 266 266 265 265 265 265 265 266 266 267 266 267 267 268 269 270 271
256 256 256 256 256 256 256 256 255 255 255 256 258 259 260 261 261 261 261 261 261 262 264 265 266 267 267 267 266 266 265 266 265 265 266 266 266 266 267 268 269 270 271
256 256 256 256 255 255 255 255 255 255 256 257 258 259 260 260 261 261 262 263 263 264 265 266 267 267 267 267 266 266 266 266 265 265 266 266 266 266 267 269 270 271 272
257 256 256 256 255 255 255 255 256 256 256 257 258 259 260 260 261 262 263 264 265 265 266 266 266 266 266 266 266 266 266 265 265 266 266 267 267 267 268 269 271 271 271
Height
5787 5788 5789 5790 5791 5793 5794 5795 5796 5797 5798 5799 5800 5801 5803 5804 5805 5806 5808 5809 5810 5810 5811 5812 5813 5814 5814 5815 5816 5816 5817 5817 5817 5817 5818 5818 5818 5818 5818 5818 5818 5818 5818
5780 5781 5782 5783 5784 5786 5787 5788 5789 5790 5791 5792 5793 5795 5796 5797 5798 5799 5801 5802 5803 5804 5805 5806 5807 5808 5809 5809 5810 5810 5811 5811 5811 5812 5812 5812 5812 5813 5813 5813 5812 5812 5812
5772 5773 5775 5776 5777 5778 5779 5781 5782 5783 5784 5785 5786 5787 5788 5789 5791 5792 5793 5794 5796 5797 5798 5799 5800 5801 5802 5803 5803 5804 5804 5804 5805 5805 5805 5805 5806 5806 5806 5806 5806 5806 5806
5763 5765 5766 5768 5769 5770 5771 5773 5774 5775 5776 5777 5778 5779 5780 5781 5783 5784 5785 5787 5788 5789 5790 5791 5793 5794 5794 5795 5796 5797 5797 5797 5798 5798 5798 5798 5798 5799 5799 5799 5799 5799 5799
5755 5756 5758 5759 5761 5762 5763 5764 5765 5767 5768 5769 5770 5771 5772 5773 5774 5775 5777 5778 5779 5781 5782 5783 5784 5785 5786 5787 5788 5789 5789 5790 5790 5790 5791 5791 5791 5791 5791 5791 5791 5791 5791
5746 5747 5749 5750 5751 5753 5754 5755 5756 5757 5758 5759 5761 5762 5763 5764 5765 5766 5768 5769 5770 5772 5773 5774 5775 5777 5778 5779 5779 5780 5781 5782 5782 5782 5783 5783 5783 5783 5783 5783 5783 5783 5783
5736 5738 5739 5740 5742 5743 5744 5745 5747 5748 5749 5750 5751 5752 5753 5754 5756 5757 5758 5759 5761 5762 5763 5765 5766 5767 5769 5770 5771 5771 5772 5773 5773 5774 5774 5774 5774 5774 5774 5774 5774 5774 5774
5726 5727 5729 5731 5732 5733 5734 5736 5737 5738 5739 5740 5741 5742 5743 5745 5745 5747 5748 5749 5751 5752 5754 5755 5756 5757 5759 5760 5761 5762 5763 5764 5764 5764 5764 5765 5765 5765 5765 5765 5765 5765 5765
5716 5717 5719 5720 5721 5723 5724 5725 5727 5728 5729 5730 5731 5732 5733 5734 5735 5736 5737 5739 5740 5742 5743 5744 5746 5747 5748 5750 5751 5752 5753 5753 5754 5754 5754 5754 5754 5755 5755 5755 5755 5756 5756
5704 5706 5708 5709 5711 5712 5713 5714 5715 5716 5717 5718 5719 5720 5722 5723 5724 5725 5726 5727 5728 5730 5732 5733 5735 5736 5737 5739 5740 5741 5742 5742 5743 5743 5743 5744 5744 5744 5744 5745 5745 5745 5746
5693 5694 5696 5698 5699 5701 5702 5702 5703 5704 5706 5707 5708 5708 5709 5710 5711 5713 5714 5716 5717 5718 5720 5721 5723 5725 5726 5727 5728 5729 5730 5731 5731 5732 5732 5732 5732 5733 5733 5734 5734 5734 5735
5681 5682 5684 5685 5687 5688 5689 5690 5691 5692 5694 5695 5696 5697 5698 5699 5700 5700 5702 5703 5705 5706 5708 5709 5711 5712 5714 5715 5716 5717 5718 5718 5719 5719 5720 5720 5720 5721 5721 5722 5723 5723 5723
5668 5669 5671 5673 5674 5676 5677 5678 5679 5681 5682 5683 5684 5685 5687 5688 5688 5689 5690 5691 5692 5694 5696 5697 5699 5700 5701 5703 5704 5705 5706 5706 5707 5707 5708 5708 5708 5709 5710 5710 5711 5711 5711
5655 5657 5658 5660 5661 5663 5664 5666 5667 5669 5670 5671 5672 5673 5675 5676 5676 5677 5678 5679 5680 5682 5683 5685 5686 5688 5689 5690 5691 5692 5693 5694 5694 5695 5695 5696 5696 5697 5697 5698 5698 5698 5698
5642 5644 5645 5647 5648 5650 5651 5653 5655 5656 5658 5659 5660 5661 5663 5664 5664 5665 5666 5667 5668 5669 5671 5672 5674 5675 5676 5677 5678 5679 5680 5681 5681 5682 5682 5683 5684 5684 5685 5685 5685 5685 5685
5628 5630 5632 5633 5635 5636 5638 5640 5642 5643 5645 5647 5648 5649 5650 5651 5652 5652 5653 5654 5655 5656 5658 5660 5661 5662 5663 5664 5665 5666 5667 5668 5669 5669 5670 5670 5671 5672 5672 5672 5672 5672 5672
5614 5616 5618 5619 5621 5622 5624 5626 5628 5630 5632 5634 5635 5636 5638 5638 5639 5640 5641 5641 5642 5643 5645 5647 5647 5648 5650 5651 5652 5653 5654 5655 5656 5656 5657 5658 5658 5659 5659 5659 5659 5659 5659
5600 5602 5603 5605 5607 5609 5611 5613 5615 5617 5618 5620 5622 5623 5624 5626 5627 5627 5628 5629 5629 5630 5632 5633 5634 5635 5636 5637 5639 5640 5641 5641 5642 5643 5644 5644 5645 5646 5646 5646 5646 5646 5646
5585 5587 5589 5591 5593 5595 5596 5599 5601 5603 5605 5607 5608 5610 5611 5612 5613 5614 5615 5615 5616 5617 5618 5620 5621 5622 5623 5624 5625 5626 5627 5628 5629 5629 5630 5631 5631 5632 5632 5632 5632 5632 5632
5571 5573 5575 5577 5579 5580 5582 5584 5587 5589 5591 5592 5594 5596 5597 5598 5600 5600 5601 5602 5603 5604 5605 5606 5608 5609 5609 5610 5611 5612 5614 5614 5615 5615 5616 5617 5617 5618 5618 5618 5619 5618 5618
5557 5559 5561 5563 5564 5566 5568 5570 5573 5575 5577 5578 5580 5582 5583 5585 5586 5587 5588 5589 5590 5590 5591 5592 5594 5595 5596 5596 5598 5598 5599 5600 5601 5601 5602 5603 5603 5604 5604 5603 5603 5603 5603
5543 5545 5547 5549 5550 5552 5554 5556 5558 5560 5562 5564 5566 5568 5569 5571 5572 5573 5574 5575 5576 5577 5578 5579 5580 5581 5582 5582 5583 5583 5584 5586 5588 5588 5587 5588 5588 5589 5589 5589 5589 5588 5588
5530 5531 5533 5535 5537 5539 5540 5542 5544 5546 5548 5550 5552 5554 5555 5557 5558 5559 5560 5561 5562 5563 5564 5565 5566 5567 5567 5568 5568 5569 5570 5571 5572 5572 5572 5574 5574 5574 5574 5574 5573 5573 5573
5517 5518 5520 5521 5523 5525 5527 5528 5530 5532 5534 5536 5538 5540 5541 5543 5544 5545 5546 5547 5548 5549 5550 5551 5552 5553 5552 5552 5553 5554 5554 5555 5557 5557 5556 5558 5558 5559 5559 5559 5558 5558 5557
5504 5505 5507 5508 5510 5511 5513 5514 5516 5518 5520 5522 5524 5526 5527 5528 5530 5531 5533 5534 5534 5535 5536 5536 5537 5537 5537 5537 5538 5538 5539 5540 5542 5542 5541 5542 5543 5543 5544 5544 5543 5542 5541
5491 5492 5493 5495 5496 5498 5499 5501 5503 5505 5507 5509 5510 5512 5513 5514 5515 5516 5518 5519 5520 5521 5521 5522 5523 5523 5523 5523 5523 5523 5524 5525 5526 5527 5527 5527 5527 5527 5529 5529 5528 5527 5526